STARLINK-37769, 69834

Orbit data source: Space-Track

STARLINK-37769, 69834 is a payload satellite owned by SpaceX/Seattle (US) in LEO that was launched on Sun, 05 Jul 2026 UTC via an FALCON 9 launch vehicle from the Air Force Eastern Test Range (AFETR). Payload-class satellites include a variety of spacecraft equipped with specific instruments for various scientific and technological missions. These include communications satellites like Starlink; space stations such as the ISS; scientific satellites like the Hubble; Earth observation satellites from companies like Planet Labs, Umbra, and HawkEye 360; GPS; miniature CubeSats for education and research; and military/defense satellites.

Loading next visibility...
Identifier
69834, 2026-154R
Orbit
LEO
Country
Flag of USUS
Related business
Manufacturer
SpaceX/Seattle
Mission
Operational spacecraft
Bus & Motor
STARLINK V2MO, Unknown motor
Mass
575 kg wet, ~530 kg dry
Launch date (UTC)
2026-07-05 (2 months ago)
Launch vehicle
FALCON 9
Launch site
Air Force Eastern Test Range (AFETR)
Object type
Payload
Rocket body
Debris
Shape & HBR
BOX + PAN, 17.7 m
Radar Cross Section
Large (>1 m²)

Expand to show TLE details & history
Last TLE update: 4 hours ago

TLE from 4 hours ago
0 STARLINK-37769
1 69834U 26154R   26236.62503027  .00028848  00000-0  83342-3 0  9995
2 69834  53.1613  97.2526 0001133 123.7915 236.3196 15.35449618  9115
Epoch: 2026-08-24T15:00Z
TLE epoch observation values (Epoch: 2026-08-24T15:00:02.615Z)
Latitude
-0.00002°
Longitude
-100.66236°
Altitude
460.917 km
Speed
7.637 km/s
True Right ascension
06h 29m 00s
True Declination
0° 00' 00"
Sunlit
Object was in daylight at epoch
Visualization orbit readout
Latitude
Unknown
Longitude
Unknown
Altitude
Unknown
Speed
Unknown
Apparent Right ascension
Unknown
Apparent Declination
Unknown
Sunlit
N/A
Visualization observer readout
Local Sidereal Time
10:27:30
Azimuth
Unknown
Elevation
Unknown
Doppler factor
Unknown
Orbital elements
Apogee altitude
460.617 km
Perigee altitude
459.067 km
Semi-major axis
6,837.979 km
Eccentricity
0.00011
Inclination
53.1613°
RAAN
97.2526°
Arg. of periapsis
123.7915°
True anomaly
236.3088°
Mean anomaly
236.3196°
Eccentric anomaly
236.3142°
Mean motion
3.83841 °/min
Orbital period
93.79 mins
BSTAR
0.00083342
Loading maneuver chart data...
Computing Atmospheric mass density...
Loading historical data...
Loading historical data...
Loading historical data...
Loading historical data...
Loading historical data...
Loading historical data...
Loading historical data...

Documentation

Showing up to 5 results
|